This demonstration page uses our WeatherBlox Daily Observations layout. Learn more.

Left ArrowRight Arrow

Hourly Observations for October 30, 2016

Temp ( °F °C ) Dew Point ( °F °C ) Humidity (%) Winds ( mph kmh ) Pressure ( in mb ) Visibility ( mi km ) Precip ( " mm )
12:15 am 00:15 Mostly Cloudy 46 8 39 4 76 76 N 13 20 30.24 1024 10 16 0.00 0.00
12:35 am 00:35 Cloudy 46 8 39 4 76 76 N 14 22 30.24 1024 10 16 0.00 0.00
12:55 am 00:55 Cloudy 48 9 39 4 71 71 N 17 28 30.24 1024 10 16 0.00 0.00
1:15 am 01:15 Cloudy 46 8 39 4 76 76 N 13 20 30.24 1024 10 16 0.00 0.00
1:35 am 01:35 Mostly Cloudy 46 8 39 4 76 76 N 12 19 30.24 1024 10 16 0.00 0.00
1:55 am 01:55 Cloudy 45 7 39 4 81 81 N 10 17 30.24 1024 10 16 0.00 0.00
2:15 am 02:15 Cloudy 46 8 39 4 76 76 N 13 20 30.27 1025 10 16 0.00 0.00
2:35 am 02:35 Cloudy 46 8 39 4 76 76 N 9 15 30.24 1024 10 16 0.00 0.00
2:55 am 02:55 Cloudy 46 8 39 4 76 76 NNW 8 13 30.27 1025 10 16 0.00 0.00
3:15 am 03:15 Cloudy 46 8 39 4 76 76 N 12 19 30.27 1025 10 16 0.00 0.00
3:35 am 03:35 Mostly Cloudy 46 8 39 4 76 76 N 12 19 30.27 1025 10 16 0.00 0.00
3:55 am 03:55 Mostly Clear 45 7 37 3 76 76 N 10 17 30.27 1025 10 16 0.00 0.00
4:15 am 04:15 Clear 45 7 37 3 76 76 N 8 13 30.27 1025 10 16 0.00 0.00
4:35 am 04:35 Clear 43 6 37 3 81 81 NNW 8 13 30.30 1026 10 16 0.00 0.00
4:55 am 04:55 Clear 43 6 37 3 81 81 N 9 15 30.30 1026 10 16 0.00 0.00
5:15 am 05:15 Clear 43 6 36 2 76 76 N 9 15 30.30 1026 10 16 0.00 0.00
5:35 am 05:35 Mostly Clear 41 5 36 2 81 81 NNW 8 13 30.33 1027 10 16 0.00 0.00
5:55 am 05:55 Clear 39 4 36 2 87 87 N 7 11 30.33 1027 10 16 0.00 0.00
6:15 am 06:15 Mostly Cloudy 39 4 36 2 87 87 N 9 15 30.33 1027 10 16 0.00 0.00
6:35 am 06:35 Cloudy 41 5 36 2 81 81 N 12 19 30.33 1027 10 16 0.00 0.00
6:55 am 06:55 Cloudy 41 5 36 2 81 81 N 10 17 30.33 1027 10 16 0.00 0.00
7:15 am 07:15 Cloudy 41 5 37 3 87 87 NNE 13 20 30.33 1027 10 16 0.00 0.00
7:35 am 07:35 Cloudy 41 5 37 3 87 87 NNE 10 17 30.33 1027 10 16 0.00 0.00
7:55 am 07:55 Cloudy 41 5 36 2 81 81 NNE 12 19 30.33 1027 10 16 0.00 0.00
8:15 am 08:15 Cloudy 41 5 36 2 81 81 NE 10 17 30.33 1027 10 16 0.00 0.00
8:35 am 08:35 Cloudy 39 4 37 3 93 93 N 8 13 30.33 1027 10 16 0.00 0.00
8:55 am 08:55 Cloudy 41 5 37 3 87 87 NNE 6 9 30.33 1027 10 16 0.00 0.00
9:15 am 09:15 Cloudy 41 5 37 3 87 87 NE 5 7 30.33 1027 10 16 0.00 0.00
9:35 am 09:35 Cloudy 41 5 37 3 87 87 ENE 7 11 30.33 1027 10 16 0.00 0.00
9:55 am 09:55 Cloudy 43 6 37 3 81 81 Calm 30.33 1027 10 16 0.00 0.00
10:15 am 10:15 Cloudy 43 6 37 3 81 81 Calm 30.33 1027 9 14 0.00 0.00
10:35 am 10:35 Cloudy 43 6 37 3 81 81 Calm 30.33 1027 9 14 0.00 0.00
10:55 am 10:55 Cloudy 43 6 37 3 81 81 E 3 6 30.33 1027 9 14 0.00 0.00
11:15 am 11:15 Cloudy 43 6 37 3 81 81 E 5 7 30.33 1027 10 16 0.00 0.00
11:35 am 11:35 Cloudy 43 6 37 3 81 81 Calm 30.33 1027 10 16 0.00 0.00
11:55 am 11:55 Cloudy 45 7 37 3 76 76 Calm 30.33 1027 10 16 0.00 0.00
12:15 pm 12:15 Cloudy 45 7 37 3 76 76 Calm 30.33 1027 10 16 0.00 0.00
12:35 pm 12:35 Cloudy 46 8 37 3 71 71 SE 3 6 30.30 1026 10 16 0.00 0.00
12:55 pm 12:55 Cloudy 46 8 37 3 71 71 Calm 30.30 1026 10 16 0.00 0.00
1:15 pm 13:15 Cloudy 46 8 39 4 76 76 Calm 30.27 1025 10 16 0.00 0.00
1:35 pm 13:35 Mostly Cloudy 48 9 39 4 71 71 Calm 30.27 1025 10 16 0.00 0.00
1:55 pm 13:55 Mostly Sunny 52 11 39 4 62 62 SE 5 7 30.21 1023 10 16 0.00 0.00
2:15 pm 14:15 Sunny 52 11 39 4 62 62 SE 8 13 30.18 1022 10 16 0.00 0.00
2:35 pm 14:35 Sunny 54 12 41 5 63 63 ESE 10 17 30.18 1022 10 16 0.00 0.00
2:55 pm 14:55 Sunny 55 13 41 5 59 59 SE 10 17 30.18 1022 10 16 0.00 0.00
3:15 pm 15:15 Sunny 57 14 41 5 55 55 SE 9 15 30.12 1020 10 16 0.00 0.00
3:35 pm 15:35 Sunny 59 15 41 5 51 51 SSE 14 22 30.12 1020 10 16 0.00 0.00
3:55 pm 15:55 Sunny 57 14 41 5 55 55 SSE 14 22 30.12 1020 10 16 0.00 0.00
4:15 pm 16:15 Sunny 57 14 41 5 55 55 SSE 14 22 30.09 1019 10 16 0.00 0.00
4:35 pm 16:35 Sunny 59 15 41 5 51 51 SSE 13 20 30.09 1019 10 16 0.00 0.00
4:55 pm 16:55 Sunny 57 14 41 5 55 55 SSE 14 22 30.09 1019 10 16 0.00 0.00
5:15 pm 17:15 Sunny 57 14 41 5 55 55 S 15 24 30.09 1019 10 16 0.00 0.00
5:35 pm 17:35 Sunny 57 14 41 5 55 55 S 14 22 30.09 1019 10 16 0.00 0.00
5:55 pm 17:55 Sunny 57 14 41 5 55 55 SSE 15 24 30.09 1019 10 16 0.00 0.00
6:15 pm 18:15 Sunny 55 13 41 5 59 59 SSE 12 19 30.06 1018 10 16 0.00 0.00
6:35 pm 18:35 Clear 54 12 39 4 58 58 SSE 12 19 30.09 1019 10 16 0.00 0.00
6:55 pm 18:55 Clear 54 12 39 4 58 58 SSE 9 15 30.09 1019 10 16 0.00 0.00
7:15 pm 19:15 Clear 52 11 39 4 62 62 SSE 9 15 30.09 1019 10 16 0.00 0.00
7:35 pm 19:35 Clear 50 10 39 4 67 67 S 7 11 30.12 1020 10 16 0.00 0.00
7:55 pm 19:55 Clear 50 10 39 4 67 67 S 8 13 30.12 1020 10 16 0.00 0.00
8:15 pm 20:15 Clear 48 9 39 4 71 71 S 8 13 30.12 1020 10 16 0.00 0.00
8:35 pm 20:35 Clear 50 10 39 4 67 67 S 9 15 30.09 1019 10 16 0.00 0.00
8:55 pm 20:55 Clear 50 10 41 5 71 71 S 12 19 30.09 1019 10 16 0.00 0.00
9:15 pm 21:15 Clear 50 10 41 5 71 71 S 13 20 30.06 1018 10 16 0.00 0.00
9:35 pm 21:35 Clear 52 11 41 5 67 67 S 13 20 30.06 1018 10 16 0.00 0.00
9:55 pm 21:55 Clear 50 10 41 5 71 71 S 12 19 30.06 1018 10 16 0.00 0.00
10:15 pm 22:15 Clear 48 9 41 5 76 76 S 9 15 30.06 1018 10 16 0.00 0.00
10:35 pm 22:35 Clear 48 9 39 4 71 71 S 7 11 30.06 1018 10 16 0.00 0.00
10:55 pm 22:55 Clear 48 9 41 5 76 76 S 10 17 30.03 1017 10 16 0.00 0.00
11:15 pm 23:15 Clear 48 9 41 5 76 76 S 12 19 30.03 1017 10 16 0.00 0.00
11:35 pm 23:35 Clear 48 9 41 5 76 76 S 9 15 30.00 1016 10 16 0.00 0.00
11:55 pm 23:55 Clear 48 9 41 5 76 76 S 9 15 30.00 1016 10 16 0.00 0.00

Powered by AerisWeather